BM1CKC-10 Weather Reports


Display with metric or nautical units.
time (UTC)temp
F
wind
direction
speed
MPH
gust
MPH
rain 1hr
in
rain 24hr
in
rain mn
in
humidity
%
barometer
mb
20260504080958 82 0.0 0.0 0.00 0.00 0.00 51 1010.7
20260504044958 82 0.0 0.0 0.00 0.00 0.00 55 1011.6
20260504042957 82 0.0 0.0 0.00 0.00 0.00 55 1011.8
20260504040958 82 0.0 0.0 0.00 0.00 0.00 55 1011.6
20260504034957 82 0.0 0.0 0.00 0.00 0.00 55 1012.0
20260504032958 82 0.0 0.0 0.00 0.00 0.00 56 1012.1
20260504030958 82 0.0 0.0 0.00 0.00 0.00 57 1012.2
20260504024958 82 0.0 0.0 0.00 0.00 0.00 56 1012.4
20260504022958 82 0.0 0.0 0.00 0.00 0.00 56 1012.5
20260504020958 81 0.0 0.0 0.00 0.00 0.00 56 1012.9
20260504014958 81 0.0 0.0 0.00 0.00 0.00 56 1012.9
20260504012958 81 0.0 0.0 0.00 0.00 0.00 56 1012.8
20260504010958 81 0.0 0.0 0.00 0.00 0.00 57 1012.6
20260504004958 81 0.0 0.0 0.00 0.00 0.00 57 1012.7
20260504002958 81 0.0 0.0 0.00 0.00 0.00 57 1012.3
20260504000958 81 0.0 0.0 0.00 0.00 0.00 58 1012.4
20260503234958 81 0.0 0.0 0.00 0.00 0.00 58 1012.6
20260503232958 80 0.0 0.0 0.00 0.00 0.00 56 1013.1
20260503230958 79 0.0 0.0 0.00 0.00 0.00 53 1013.2
20260503224959 76 0.0 0.0 0.00 0.00 0.00 54 1012.5
20260503222959 75 0.0 0.0 0.00 0.00 0.00 55 1012.2
20260503220958 75 0.0 0.0 0.00 0.00 0.00 57 1011.8
20260503214959 75 0.0 0.0 0.00 0.00 0.00 51 1011.4
20260503212959 77 0.0 0.0 0.00 0.00 0.00 59 1011.0
20260503210959 77 0.0 0.0 0.00 0.00 0.00 60 1010.3
20260503204959 78 0.0 0.0 0.00 0.00 0.00 57 1010.4
20260503202958 78 0.0 0.0 0.00 0.00 0.00 59 1010.1
20260503200959 78 0.0 0.0 0.00 0.00 0.00 55 1009.6
20260503194958 78 0.0 0.0 0.00 0.00 0.00 59 1009.5
20260503192958 77 0.0 0.0 0.00 0.00 0.00 57 1009.2
20260503190958 77 0.0 0.0 0.00 0.00 0.00 58 1008.9
20260503184958 78 0.0 0.0 0.00 0.00 0.00 57 1008.8
20260503182958 77 0.0 0.0 0.00 0.00 0.00 56 1009.0
20260503180958 78 0.0 0.0 0.00 0.00 0.00 57 1008.7
20260503174958 77 0.0 0.0 0.00 0.00 0.00 59 1008.9
20260503172958 78 0.0 0.0 0.00 0.00 0.00 59 1008.7
20260503170958 78 0.0 0.0 0.00 0.00 0.00 58 1008.8
20260503150958 77 0.0 0.0 0.00 0.00 0.00 56 1008.3
20260503130958 84 0.0 0.0 0.00 0.00 0.00 65 1006.1